Time,TemperatureF,DewpointF,PressureIn,WindDirection,WindDirectionDegrees,WindSpeedMPH,WindSpeedGustMPH,Humidity,HourlyPrecipIn,Conditions,Clouds,dailyrainin,SoftwareType,DateUTC
2013-04-09 00:09:00,48.4,42.8,29.99,NE,44,7.2,16.6,81,0.00,,,0.00,VWS V14.00,2013-04-09 05:09:00,
2013-04-09 00:19:00,48.4,42.8,29.99,ENE,74,8.1,15.2,81,0.00,,,0.00,VWS V14.00,2013-04-09 05:19:00,
2013-04-09 00:29:00,47.3,42.7,29.99,ENE,59,8.1,16.6,84,0.00,,,0.00,VWS V14.00,2013-04-09 05:29:00,
2013-04-09 00:39:00,47.3,42.7,29.99,ENE,57,10.7,20.1,84,0.00,,,0.00,VWS V14.00,2013-04-09 05:39:00,
2013-04-09 00:50:00,46.9,42.4,29.99,NE,52,10.7,17.4,84,0.00,,,0.00,VWS V14.00,2013-04-09 05:50:00,
2013-04-09 00:59:00,46.9,42.4,29.99,NE,40,10.7,17.4,84,0.00,,,0.00,VWS V14.00,2013-04-09 05:59:00,
2013-04-09 01:09:00,46.8,42.5,29.99,NE,54,7.2,20.1,85,0.00,,,0.00,VWS V14.00,2013-04-09 06:09:00,
2013-04-09 01:19:00,46.8,42.5,29.99,NE,51,7.2,16.6,85,0.00,,,0.00,VWS V14.00,2013-04-09 06:19:00,
2013-04-09 01:29:00,46.8,42.5,29.99,SSE,165,9.8,12.5,85,0.00,,,0.00,VWS V14.00,2013-04-09 06:29:00,
2013-04-09 01:39:00,46.0,42.7,29.99,North,9,7.2,15.2,88,2.28,,,0.12,VWS V14.00,2013-04-09 06:39:00,
2013-04-09 01:49:00,45.3,42.8,29.99,NNE,29,7.2,15.2,91,0.71,,,0.16,VWS V14.00,2013-04-09 06:49:00,
2013-04-09 01:59:00,45.0,43.1,29.99,NE,42,9.8,12.5,93,0.71,,,0.16,VWS V14.00,2013-04-09 06:59:00,
2013-04-09 02:09:00,44.8,43.2,29.96,NE,46,8.1,17.4,94,0.71,,,0.16,VWS V14.00,2013-04-09 07:09:00,
2013-04-09 02:19:00,45.1,43.8,29.96,NE,45,7.2,15.2,95,0.71,,,0.16,VWS V14.00,2013-04-09 07:19:00,
2013-04-09 02:29:00,45.0,43.6,29.99,ENE,74,10.7,16.1,95,0.08,,,0.20,VWS V14.00,2013-04-09 07:29:00,
2013-04-09 02:39:00,44.8,43.7,29.96,ENE,67,9.8,15.2,96,1.81,,,0.39,VWS V14.00,2013-04-09 07:39:00,
2013-04-09 02:49:00,44.8,43.7,29.96,NE,50,10.7,12.5,96,1.81,,OVC039,0.39,VWS V14.00,2013-04-09 07:49:00,
2013-04-09 02:59:00,45.0,44.2,29.96,NE,56,10.7,17.4,97,1.81,,OVC039,0.39,VWS V14.00,2013-04-09 07:59:00,
2013-04-09 03:09:00,45.0,44.2,29.96,ENE,60,10.7,21.0,97,1.81,,,0.39,VWS V14.00,2013-04-09 08:09:00,
2013-04-09 03:19:00,45.0,44.2,29.96,NNE,22,5.4,16.1,97,1.81,,,0.39,VWS V14.00,2013-04-09 08:19:00,
2013-04-09 03:29:00,45.1,44.6,29.96,NE,54,11.6,16.1,98,1.81,,,0.39,VWS V14.00,2013-04-09 08:29:00,
2013-04-09 03:49:00,45.1,44.6,29.96,NE,46,8.1,12.5,98,1.81,,,0.39,VWS V14.00,2013-04-09 08:49:00,
2013-04-09 03:59:00,45.1,44.6,29.96,NE,51,8.1,16.1,98,1.81,,,0.39,VWS V14.00,2013-04-09 08:59:00,
2013-04-09 04:09:00,45.1,44.6,29.96,NNE,31,12.5,12.5,98,1.81,,,0.39,VWS V14.00,2013-04-09 09:09:00,
2013-04-09 04:19:00,45.3,44.8,29.96,NE,53,10.7,15.2,98,1.81,,,0.39,VWS V14.00,2013-04-09 09:19:00,
2013-04-09 04:29:00,45.5,45.0,29.96,NE,36,7.2,14.3,98,1.81,,,0.39,VWS V14.00,2013-04-09 09:29:00,
2013-04-09 04:39:00,45.7,45.2,29.96,NNE,30,12.5,15.2,98,1.81,,,0.39,VWS V14.00,2013-04-09 09:39:00,
2013-04-09 04:50:00,45.9,45.3,29.96,NE,43,10.7,16.6,98,0.00,,,0.39,VWS V14.00,2013-04-09 09:50:00,
2013-04-09 05:00:00,45.9,45.3,29.96,NNE,16,12.5,18.3,98,0.00,,,0.39,VWS V14.00,2013-04-09 10:00:00,
2013-04-09 05:10:00,46.0,45.5,29.96,East,90,11.6,18.3,98,0.00,,CLR,0.39,VWS V14.00,2013-04-09 10:10:00,
2013-04-09 05:19:00,46.0,45.5,29.96,East,85,6.3,16.6,98,0.00,,CLR,0.39,VWS V14.00,2013-04-09 10:19:00,
2013-04-09 05:29:00,46.0,45.2,29.96,ENE,73,12.5,16.1,97,0.00,,CLR,0.39,VWS V14.00,2013-04-09 10:29:00,
2013-04-09 05:39:00,46.0,45.2,29.93,NE,35,16.1,17.4,97,0.00,,BKN120,0.39,VWS V14.00,2013-04-09 10:39:00,
2013-04-09 05:49:00,46.0,45.2,29.93,NE,46,11.6,17.4,97,0.00,,OVC043,0.39,VWS V14.00,2013-04-09 10:49:00,
2013-04-09 05:59:00,46.2,45.2,29.93,NE,47,10.7,16.6,96,0.00,,OVC043,0.39,VWS V14.00,2013-04-09 10:59:00,
2013-04-09 06:09:00,46.2,45.2,29.96,East,80,17.4,17.4,96,0.00,,BKN110,0.39,VWS V14.00,2013-04-09 11:09:00,
2013-04-09 06:19:00,46.2,44.9,29.96,ENE,74,5.4,17.4,95,0.00,,BKN110,0.39,VWS V14.00,2013-04-09 11:19:00,
2013-04-09 06:29:00,46.2,44.9,29.93,NE,39,6.3,12.5,95,0.00,,BKN110,0.39,VWS V14.00,2013-04-09 11:29:00,
2013-04-09 06:39:00,46.2,44.9,29.93,ENE,76,6.3,16.6,95,0.00,,BKN110,0.39,VWS V14.00,2013-04-09 11:39:00,
2013-04-09 06:49:00,46.4,44.8,29.93,ESE,110,6.3,16.6,94,0.00,,OVC110,0.39,VWS V14.00,2013-04-09 11:49:00,
2013-04-09 06:59:00,46.4,44.8,29.93,East,92,12.5,16.6,94,0.00,,OVC110,0.39,VWS V14.00,2013-04-09 11:59:00,
2013-04-09 07:09:00,46.4,44.8,29.93,ENE,74,7.2,15.2,94,0.00,,OVC110,0.39,VWS V14.00,2013-04-09 12:09:00,
2013-04-09 07:39:00,46.4,44.8,29.93,East,80,11.6,16.6,94,0.00,,BKN100,0.39,VWS V14.00,2013-04-09 12:39:00,
2013-04-09 07:50:00,46.4,44.8,29.93,ENE,60,12.5,17.4,94,0.00,,BKN055,0.39,VWS V14.00,2013-04-09 12:50:00,
2013-04-09 08:00:00,46.6,45.2,29.93,East,95,11.6,15.2,95,0.00,,OVC060,0.39,VWS V14.00,2013-04-09 13:00:00,
2013-04-09 08:09:00,46.6,45.2,29.93,East,89,9.8,16.1,95,0.00,,OVC060,0.39,VWS V14.00,2013-04-09 13:09:00,
2013-04-09 08:19:00,46.6,45.2,29.93,NE,50,8.1,16.1,95,0.00,,OVC060,0.39,VWS V14.00,2013-04-09 13:19:00,
2013-04-09 08:29:00,46.6,45.2,29.93,ENE,68,8.1,12.5,95,0.00,,OVC060,0.39,VWS V14.00,2013-04-09 13:29:00,
2013-04-09 08:39:00,46.6,45.2,29.93,NE,51,11.6,13.4,95,0.00,,OVC032,0.39,VWS V14.00,2013-04-09 13:39:00,
2013-04-09 08:59:00,46.6,45.2,29.93,ENE,68,14.3,16.6,95,0.00,,-RA,0.39,VWS V14.00,2013-04-09 13:59:00,
2013-04-09 09:09:00,46.6,45.2,29.90,NE,53,9.8,14.3,95,0.00,,,0.39,VWS V14.00,2013-04-09 14:09:00,
2013-04-09 09:19:00,46.6,45.2,29.90,ENE,61,8.1,15.2,95,0.00,,,0.39,VWS V14.00,2013-04-09 14:19:00,
2013-04-09 09:29:00,46.6,45.2,29.90,ENE,78,10.7,12.5,95,0.00,,,0.39,VWS V14.00,2013-04-09 14:29:00,
2013-04-09 09:39:00,46.6,45.2,29.90,East,99,13.4,16.6,95,0.00,,OVC040,0.39,VWS V14.00,2013-04-09 14:39:00,
2013-04-09 09:49:00,46.6,45.2,29.90,NE,55,15.2,16.1,95,0.00,,,0.39,VWS V14.00,2013-04-09 14:49:00,
2013-04-09 10:09:00,46.6,45.2,29.90,East,94,10.7,16.6,95,0.00,,,0.39,VWS V14.00,2013-04-09 15:09:00,
2013-04-09 10:19:00,46.6,45.2,29.90,East,80,8.1,15.2,95,0.00,,,0.39,VWS V14.00,2013-04-09 15:19:00,
2013-04-09 10:29:00,46.6,45.2,29.90,ESE,108,16.6,16.6,95,0.00,,,0.39,VWS V14.00,2013-04-09 15:29:00,
2013-04-09 10:50:00,46.6,45.2,29.87,ENE,75,11.6,16.1,95,0.00,,,0.39,VWS V14.00,2013-04-09 15:50:00,
2013-04-09 11:00:00,46.6,45.2,29.87,NE,53,6.3,12.5,95,0.00,,,0.39,VWS V14.00,2013-04-09 16:00:00,
2013-04-09 11:10:00,46.6,45.2,29.87,ENE,67,6.3,14.3,95,0.00,,,0.39,VWS V14.00,2013-04-09 16:10:00,
2013-04-09 11:20:00,46.6,45.2,29.87,East,87,5.4,16.1,95,0.00,,,0.39,VWS V14.00,2013-04-09 16:20:00,
2013-04-09 11:29:00,46.6,45.2,29.87,NNE,28,6.3,12.5,95,0.00,,,0.39,VWS V14.00,2013-04-09 16:29:00,
2013-04-09 11:39:00,46.6,45.2,29.87,NE,38,7.2,12.5,95,0.00,,,0.39,VWS V14.00,2013-04-09 16:39:00,
2013-04-09 11:49:00,46.6,45.2,29.87,ENE,63,12.5,12.5,95,0.00,,,0.39,VWS V14.00,2013-04-09 16:49:00,
2013-04-09 12:09:00,46.6,45.2,29.87,NNE,23,7.2,12.5,95,0.00,,,0.39,VWS V14.00,2013-04-09 17:09:00,
2013-04-09 12:19:00,46.6,45.2,29.87,NE,41,5.4,12.5,95,0.00,,,0.39,VWS V14.00,2013-04-09 17:19:00,
2013-04-09 12:29:00,46.6,45.2,29.84,North,2,5.4,11.6,95,0.00,,SCT110,0.39,VWS V14.00,2013-04-09 17:29:00,
2013-04-09 12:39:00,46.6,45.2,29.84,NE,53,5.4,12.5,95,0.00,,SCT110,0.39,VWS V14.00,2013-04-09 17:39:00,
2013-04-09 12:49:00,46.6,45.2,29.84,North,10,5.4,10.7,95,0.00,,CLR,0.39,VWS V14.00,2013-04-09 17:49:00,
2013-04-09 12:59:00,46.6,45.2,29.84,NE,45,5.4,13.4,95,0.00,,CLR,0.39,VWS V14.00,2013-04-09 17:59:00,
2013-04-09 13:09:00,46.6,45.2,29.87,NNE,15,9.8,11.6,95,0.00,,CLR,0.39,VWS V14.00,2013-04-09 18:09:00,
2013-04-09 13:19:00,46.6,45.2,29.87,NE,43,7.2,11.6,95,0.00,,CLR,0.39,VWS V14.00,2013-04-09 18:19:00,
2013-04-09 13:29:00,46.6,45.2,29.87,North,8,7.2,10.7,95,0.00,,CLR,0.39,VWS V14.00,2013-04-09 18:29:00,
2013-04-09 13:39:00,46.6,45.2,29.87,ENE,70,11.6,13.4,95,0.00,,CLR,0.39,VWS V14.00,2013-04-09 18:39:00,
2013-04-09 13:50:00,46.6,45.2,29.84,ENE,72,6.3,12.5,95,0.00,,CLR,0.39,VWS V14.00,2013-04-09 18:50:00,
2013-04-09 14:09:00,46.6,45.2,29.84,ENE,65,11.6,15.2,95,0.00,,BKN075,0.39,VWS V14.00,2013-04-09 19:09:00,
2013-04-09 14:19:00,46.6,45.2,29.84,NE,56,8.9,12.5,95,0.00,,BKN075,0.39,VWS V14.00,2013-04-09 19:19:00,
2013-04-09 14:29:00,46.6,45.2,29.84,ENE,63,4.5,9.8,95,0.00,,BKN075,0.39,VWS V14.00,2013-04-09 19:29:00,
2013-04-09 14:39:00,46.6,45.2,29.84,NNE,12,6.3,11.6,95,0.00,,SCT060,0.39,VWS V14.00,2013-04-09 19:39:00,
2013-04-09 14:49:00,46.6,45.2,29.84,NNE,17,7.2,10.7,95,0.00,,BKN060,0.39,VWS V14.00,2013-04-09 19:49:00,
2013-04-09 14:59:00,46.6,45.2,29.84,NNE,12,9.8,13.4,95,0.00,,BKN060,0.39,VWS V14.00,2013-04-09 19:59:00,
2013-04-09 15:09:00,46.6,45.2,29.84,NNE,14,7.2,11.6,95,0.00,,SCT060,0.39,VWS V14.00,2013-04-09 20:09:00,
2013-04-09 15:19:00,46.6,45.2,29.84,ENE,61,6.3,10.7,95,0.00,,SCT060,0.39,VWS V14.00,2013-04-09 20:19:00,
2013-04-09 15:29:00,46.6,45.2,29.84,NNE,26,7.2,10.7,95,0.00,,SCT060,0.39,VWS V14.00,2013-04-09 20:29:00,
2013-04-09 15:39:00,46.6,45.2,29.84,NE,38,5.4,10.7,95,0.00,,SCT080,0.39,VWS V14.00,2013-04-09 20:39:00,
2013-04-09 15:49:00,46.6,45.2,29.84,NE,49,6.3,11.6,95,0.00,,SCT080,0.39,VWS V14.00,2013-04-09 20:49:00,
2013-04-09 15:59:00,46.6,45.2,29.84,North,6,4.5,12.5,95,0.00,,SCT080,0.39,VWS V14.00,2013-04-09 20:59:00,
2013-04-09 16:09:00,46.6,45.2,29.84,ENE,58,6.3,10.7,95,0.00,,SCT055,0.39,VWS V14.00,2013-04-09 21:09:00,
2013-04-09 16:19:00,46.6,45.2,29.84,North,7,5.4,10.7,95,0.00,,SCT055,0.39,VWS V14.00,2013-04-09 21:19:00,
2013-04-09 16:29:00,46.6,45.2,29.84,North,8,5.4,9.8,95,0.00,,SCT055,0.39,VWS V14.00,2013-04-09 21:29:00,
2013-04-09 16:39:00,46.6,45.2,29.84,NNW,330,6.3,9.8,95,0.00,,SCT055,0.39,VWS V14.00,2013-04-09 21:39:00,
2013-04-09 16:49:00,46.6,45.2,29.84,North,1,4.5,10.7,95,0.00,,CLR,0.39,VWS V14.00,2013-04-09 21:49:00,
2013-04-09 16:59:00,66.2,57.3,29.84,NNE,14,6.3,12.5,73,0.00,,CLR,0.39,VWS V14.00,2013-04-09 21:59:00,
2013-04-09 17:09:00,65.8,57.0,29.84,NE,37,6.3,10.7,73,0.00,,,0.39,VWS V14.00,2013-04-09 22:09:00,
2013-04-09 17:28:00,65.1,55.9,29.87,North,359,10.7,16.1,72,0.00,,,0.39,VWS V14.00,2013-04-09 22:28:00,
2013-04-09 17:50:00,61.3,52.2,29.87,North,10,8.9,16.6,72,0.00,,,0.39,VWS V14.00,2013-04-09 22:50:00,
2013-04-09 18:00:00,61.3,52.2,29.87,NE,45,11.6,17.4,72,0.00,,,0.39,VWS V14.00,2013-04-09 23:00:00,
2013-04-09 18:09:00,61.3,52.2,29.87,NE,47,15.2,20.1,72,0.00,,BKN070,0.39,VWS V14.00,2013-04-09 23:09:00,
2013-04-09 18:19:00,61.3,52.2,29.87,NNE,17,10.7,17.4,72,0.00,,BKN070,0.39,VWS V14.00,2013-04-09 23:19:00,
2013-04-09 18:29:00,61.3,52.2,29.90,NNW,333,8.9,19.2,72,0.00,,OVC006,0.39,VWS V14.00,2013-04-09 23:29:00,
2013-04-09 18:39:00,61.3,52.2,29.90,NNE,30,10.7,17.4,72,0.00,,OVC006,0.39,VWS V14.00,2013-04-09 23:39:00,
2013-04-09 18:49:00,61.3,52.2,29.90,NE,48,10.7,17.4,72,0.00,,OVC006,0.39,VWS V14.00,2013-04-09 23:49:00,
2013-04-09 18:59:00,61.3,52.2,29.90,NNE,25,16.1,21.0,72,0.00,,OVC006,0.39,VWS V14.00,2013-04-09 23:59:00,
2013-04-09 19:09:00,61.3,52.2,29.90,North,1,11.6,21.9,72,0.00,,OVC006,0.39,VWS V14.00,2013-04-10 00:09:00,
2013-04-09 19:19:00,61.3,52.2,29.90,North,8,16.1,19.2,72,0.00,,OVC006,0.39,VWS V14.00,2013-04-10 00:19:00,
2013-04-09 19:29:00,61.3,52.2,29.90,North,355,16.6,16.6,72,0.00,,OVC006,0.39,VWS V14.00,2013-04-10 00:29:00,
2013-04-09 19:39:00,61.3,52.2,29.93,NNE,27,8.1,20.1,72,0.00,,OVC006,0.39,VWS V14.00,2013-04-10 00:39:00,
2013-04-09 19:49:00,61.3,52.2,29.93,North,359,11.6,17.4,72,0.00,,OVC006,0.39,VWS V14.00,2013-04-10 00:49:00,
2013-04-09 19:59:00,61.3,52.2,29.93,NNE,12,15.2,21.9,72,0.00,,OVC060,0.39,VWS V14.00,2013-04-10 00:59:00,
2013-04-09 20:09:00,61.3,52.2,29.93,NE,43,12.5,16.6,72,0.00,,OVC060,0.39,VWS V14.00,2013-04-10 01:09:00,
2013-04-09 20:19:00,61.3,52.2,29.93,NE,39,17.4,21.9,72,0.00,,OVC060,0.39,VWS V14.00,2013-04-10 01:19:00,
2013-04-09 20:39:00,61.3,52.2,29.93,NE,54,11.6,21.0,72,0.00,,OVC008,0.39,VWS V14.00,2013-04-10 01:39:00,
2013-04-09 20:49:00,61.3,52.2,29.96,NNW,330,16.6,16.6,72,0.00,,OVC008,0.39,VWS V14.00,2013-04-10 01:49:00,
2013-04-09 20:59:00,61.3,52.2,29.96,NNE,19,16.6,16.6,72,0.00,,OVC008,0.39,VWS V14.00,2013-04-10 01:59:00,
2013-04-09 21:09:00,61.3,52.2,29.96,North,351,12.5,20.1,72,0.00,,OVC008,0.39,VWS V14.00,2013-04-10 02:09:00,
2013-04-09 21:19:00,45.0,41.0,29.96,NE,54,17.4,20.1,86,0.00,,OVC008,0.39,VWS V14.00,2013-04-10 02:19:00,
2013-04-09 21:28:00,45.0,41.0,29.96,NNE,27,17.4,27.3,86,0.00,,OVC008,0.39,VWS V14.00,2013-04-10 02:28:00,
2013-04-09 21:40:00,44.6,41.0,29.96,NE,48,11.6,20.1,87,0.00,,OVC008,0.39,VWS V14.00,2013-04-10 02:40:00,
2013-04-09 21:50:00,44.6,41.0,29.96,NE,49,11.6,21.9,87,0.00,,OVC006,0.39,VWS V14.00,2013-04-10 02:50:00,
2013-04-09 22:00:00,44.6,41.0,29.96,NNE,24,6.3,17.4,87,0.00,,OVC006,0.39,VWS V14.00,2013-04-10 03:00:00,
2013-04-09 22:09:00,44.6,41.0,29.96,North,6,8.1,21.9,87,0.00,,OVC006,0.39,VWS V14.00,2013-04-10 03:09:00,
2013-04-09 22:19:00,44.6,41.0,29.96,NE,40,11.6,16.1,87,0.00,,OVC006,0.39,VWS V14.00,2013-04-10 03:19:00,
2013-04-09 22:30:00,44.2,41.5,29.96,NE,40,12.5,21.9,90,0.00,,OVC006,0.39,VWS V14.00,2013-04-10 03:30:00,
2013-04-09 22:39:00,44.4,41.7,29.96,North,11,8.1,20.1,90,0.00,,OVC006,0.39,VWS V14.00,2013-04-10 03:39:00,
2013-04-09 22:49:00,44.4,41.7,29.96,North,354,9.8,16.6,90,0.00,,OVC006,0.39,VWS V14.00,2013-04-10 03:49:00,
2013-04-09 22:59:00,44.2,41.5,29.96,ENE,61,8.1,17.4,90,0.00,,OVC006,0.39,VWS V14.00,2013-04-10 03:59:00,
2013-04-09 23:09:00,44.2,41.8,29.93,NE,51,10.7,17.4,91,0.00,,OVC004,0.39,VWS V14.00,2013-04-10 04:09:00,
2013-04-09 23:19:00,44.1,41.6,29.93,ENE,70,10.7,21.0,91,0.00,,OVC004,0.39,VWS V14.00,2013-04-10 04:19:00,
2013-04-09 23:29:00,44.1,41.6,29.96,North,10,9.8,21.0,91,0.00,,OVC004,0.39,VWS V14.00,2013-04-10 04:29:00,
2013-04-09 23:39:00,44.1,41.6,29.93,ESE,104,10.7,26.4,91,0.00,,OVC004,0.39,VWS V14.00,2013-04-10 04:39:00,
2013-04-09 23:49:00,44.1,41.9,29.93,NE,38,11.6,17.4,92,0.00,,OVC004,0.39,VWS V14.00,2013-04-10 04:49:00,
2013-04-09 23:59:00,44.1,41.9,29.93,NNE,19,9.8,19.2,92,0.00,,OVC004,0.00,VWS V14.00,2013-04-10 04:59:00,